#timestamp,LO_Frequency,Hit,StdDev 
1645340415.5,286046992.0,N
1645340435.3,286046995.6,N
1645340455.1,286046991.8,N
1645340475.9,286046996.8,N
1645340495.7,286046995.6,N
1645340515.6,286047001.2,N
1645340535.4,286046998.1,N
1645340555.2,286047003.9,N
1645340575.1,286047005.6,N
1645340576.0,286047005.6,N
1645340595.8,286046999.9,N
1645340615.7,286046999.5,N
1645340635.5,286047000.6,N
1645340655.3,286046995.2,N
1645340675.2,286047000.3,N
1645340695.0,286047000.7,N
1645340695.9,286047000.7,N
1645340715.7,286046998.3,N
1645340735.6,286046997.3,N
1645340755.4,286047002.6,N
1645340775.3,286047001.2,N
1645340795.1,286046996.5,N
1645340796.0,286046996.5,N
1645340815.8,286046999.5,N
1645340835.7,286046998.9,N
1645340855.5,286046996.7,N
1645340875.3,286046995.1,N
1645340895.2,286046999.5,N
1645340915.0,286046992.1,N
1645340915.9,286046992.1,N
1645340935.8,286046995.3,N
1645340955.6,286047004.3,N
1645340975.4,286047008.0,N
1645340995.3,286047008.9,N
1645341015.1,286047008.8,N
1645341035.9,286047009.8,N
1645341055.7,286047009.5,N
1645341075.5,286047005.0,N
1645341095.4,286047009.7,N
1645341115.2,286047009.7,N
1645341135.0,286047006.1,N
1645341135.9,286047006.1,N
1645341155.8,286047001.8,N
1645341175.6,286047003.9,N
1645341195.5,286047001.3,N
1645341215.3,286047003.3,N
1645341235.1,286047001.8,N
1645341255.9,286047003.3,N
1645341275.7,286047006.1,N
1645341295.5,286047005.4,N
1645341315.4,286047011.7,N
1645341335.2,286047015.1,N
1645341355.1,286047009.5,N
1645341356.0,286047009.5,N
1645341375.8,286047012.1,N
1645341395.6,286047018.3,Y
1645341415.5,286047008.3,P
1645341435.3,286047005.6,P
1645341455.2,286047003.5,N
1645341475.9,286047005.7,Y
1645341495.7,286046999.6,P
1645341515.6,286046999.2,N
1645341535.4,286046996.9,N
1645341555.3,286046994.9,N
1645341575.1,286046999.6,N
1645341576.0,286046999.6,N
1645341595.8,286047003.7,N
1645341615.7,286047001.6,N
1645341635.5,286046995.4,N
1645341655.3,286046988.8,Y
1645341675.2,286046995.5,P
1645341695.0,286046998.6,N
1645341695.9,286046998.6,N
1645341715.8,286047000.1,N
1645341735.6,286047000.5,N
1645341755.4,286046996.5,N
1645341775.3,286046995.7,N
1645341795.1,286047000.0,N
1645341815.9,286046998.5,N
1645341835.7,286047000.4,N
1645341855.5,286047000.4,N
1645341875.4,286047000.8,N
1645341895.2,286046999.7,N
1645341915.0,286047008.9,Y
1645341915.9,286047008.9,P
1645341935.8,286047009.5,N
1645341955.6,286047012.0,N
1645341975.5,286047006.7,N
1645341995.3,286047010.8,N
1645342015.1,286047009.4,N
1645342035.9,286047012.5,Y
1645342055.7,286047007.5,P
1645342075.5,286047002.4,P
1645342095.4,286047007.6,N
1645342115.2,286047006.4,N
1645342135.1,286047008.5,Y
1645342136.0,286047008.5,P
1645342155.8,286047000.1,N
1645342175.6,286046997.6,N
1645342195.5,286046995.2,N
1645342215.3,286046998.2,N
1645342235.2,286046997.3,N
1645342255.9,286046994.7,N
1645342275.7,286046992.2,N
1645342295.6,286046992.1,N
1645342315.4,286046997.1,N
1645342335.2,286046998.2,N
1645342355.1,286046999.7,N
1645342356.0,286046999.7,N
1645342375.8,286046993.5,N
1645342395.7,286046981.6,Y
1645342415.5,286046983.2,P
1645342435.3,286046982.5,N
1645342455.2,286046983.2,N
1645342475.0,286046978.8,Y
1645342475.9,286046978.8,P
1645342495.7,286046993.1,N
1645342515.6,286046990.0,N
1645342535.4,286046994.2,N
1645342555.3,286046996.2,N
1645342575.1,286046995.5,N
1645342576.0,286046995.5,N
1645342595.8,286047000.4,N
1645342615.7,286046997.1,N
1645342635.5,286046997.6,N
1645342655.3,286047000.9,N
1645342675.2,286046992.2,N
1645342695.0,286046997.5,N
1645342695.9,286046997.5,N
1645342715.8,286046999.9,N
1645342735.6,286047004.1,N
1645342755.4,286046996.6,N
1645342775.3,286047000.1,N
1645342795.1,286047006.0,N
1645342815.8,286047002.8,N
1645342835.7,286046999.0,N
1645342855.5,286046999.5,N
1645342875.4,286046999.2,N
1645342895.2,286046998.9,N
1645342915.0,286046999.6,N
1645342915.9,286046999.6,N
1645342935.8,286047001.8,N
1645342955.6,286047001.3,N
1645342975.4,286046998.3,N
1645342995.3,286046991.9,N
1645343015.1,286046993.7,N
1645343035.9,286046992.0,N
1645343055.7,286046991.9,N
1645343075.5,286046999.0,N
1645343095.4,286046997.9,N
1645343115.2,286046995.3,N
1645343135.0,286047000.0,N
1645343135.9,286047000.0,N
1645343155.8,286047001.7,N
1645343175.6,286046996.9,N
1645343195.5,286046997.4,N
1645343215.3,286047004.5,N
1645343235.1,286047007.3,N
1645343255.9,286047003.2,N
1645343275.7,286047005.7,N
1645343295.6,286047007.5,N
1645343315.4,286047006.4,N
1645343335.2,286047000.0,N
1645343355.1,286047002.6,N
1645343356.0,286047002.6,N
1645343375.8,286047000.4,N
1645343395.6,286046998.8,N
1645343415.5,286047002.6,N
1645343435.3,286047001.5,N
1645343455.2,286046998.5,N
1645343475.9,286047007.4,N
1645343495.7,286047003.8,N
1645343515.6,286047003.2,N
1645343535.4,286047007.3,N
1645343555.2,286047009.1,N
1645343575.1,286047013.2,N
1645343576.0,286047013.2,N
1645343595.8,286047012.2,N
1645343615.7,286047011.4,N
1645343635.5,286047007.9,N
1645343655.3,286047009.1,N
1645343675.2,286047000.2,N
1645343695.0,286047002.1,N
1645343695.9,286047002.1,N
1645343715.8,286046999.7,N
1645343735.6,286046990.1,N
1645343755.4,286046987.6,N
1645343775.3,286046987.9,N
1645343795.1,286046986.2,N
1645343815.8,286046986.9,N
1645343835.7,286046991.9,N
1645343855.5,286046994.8,N
1645343875.4,286046993.5,N
1645343895.2,286046987.0,N
1645343915.0,286046990.3,N
1645343915.9,286046990.3,N
1645343935.8,286046992.5,N
1645343955.6,286046994.5,N
1645343975.4,286046987.4,N
1645343995.3,286046982.3,N
